Date,TemperatureHighF,TemperatureAvgF,TemperatureLowF,DewpointHighF,DewpointAvgF,DewpointLowF,HumidityHigh,HumidityAvg,HumidityLow,PressureMaxIn,PressureMinIn,WindSpeedMaxMPH,WindSpeedAvgMPH,GustSpeedMaxMPH,PrecipitationSumIn
2013-2-1,29.9,22.4,14.3,25.8,9.5,3.1,88,58,42,30.42,29.82,4,1,18,0.00
2013-2-2,32.3,21.2,11.1,23.5,13.4,4.6,90,73,45,30.42,30.05,11,2,23,0.00
2013-2-3,36.1,30.0,25.2,27.1,22.0,13.4,91,73,55,30.05,29.85,6,1,24,0.00
2013-2-4,36.9,28.8,18.6,27.6,17.6,11.3,82,63,54,30.12,29.93,11,3,20,0.00
2013-2-5,48.7,39.9,30.2,36.3,32.0,26.4,87,74,61,29.95,29.86,8,2,18,0.00
2013-2-6,49.7,37.6,26.2,31.9,27.9,22.0,90,70,46,30.35,29.95,5,1,12,0.00
2013-2-7,39.2,32.2,24.1,30.3,26.3,20.8,89,79,67,30.43,30.20,6,1,13,0.00
2013-2-8,44.4,35.2,30.6,36.9,29.7,22.7,93,81,63,30.20,29.83,4,1,16,0.03
2013-2-9,45.0,33.3,22.4,23.0,17.8,14.9,76,54,34,30.42,30.06,5,1,14,0.00
2013-2-10,44.8,30.8,16.5,28.5,19.6,12.8,88,66,40,30.50,30.24,12,3,22,0.00
2013-2-11,62.0,49.0,35.8,51.7,37.7,24.7,92,69,33,30.24,29.79,11,4,25,0.01
2013-2-12,61.2,48.1,39.5,28.2,24.9,21.0,55,41,22,29.98,29.84,10,2,25,0.00
2013-2-13,43.5,35.3,31.7,33.3,28.4,22.4,95,77,47,29.95,29.66,5,0,15,0.10
2013-2-14,47.9,35.7,25.3,30.6,27.7,23.1,95,75,48,30.07,29.84,8,1,17,0.01
2013-2-15,54.7,36.4,22.8,39.6,30.0,20.0,100,79,47,30.09,29.93,12,1,22,0.13
2013-2-16,34.6,31.2,24.8,32.0,23.5,13.6,100,74,56,30.03,29.89,5,1,11,0.00
2013-2-17,26.7,22.4,18.4,15.9,8.5,5.0,72,55,43,30.29,29.93,5,1,16,0.00
2013-2-18,46.2,28.8,10.5,24.9,15.3,6.0,83,59,36,30.43,30.17,9,2,18,0.00
2013-2-19,49.6,39.0,33.8,40.6,29.3,17.3,91,69,48,30.17,29.75,12,4,27,0.04
2013-2-20,39.0,31.3,22.5,18.7,15.9,13.2,68,53,41,30.20,29.92,7,2,21,0.00
2013-2-21,41.1,28.4,17.3,21.4,16.5,11.0,78,62,44,30.37,30.17,6,1,14,0.00
2013-2-22,34.4,30.5,26.6,28.9,24.4,19.0,89,78,66,30.41,30.20,7,2,14,0.04
2013-2-23,50.4,38.7,32.4,41.7,33.9,27.9,92,83,71,30.21,29.85,5,1,11,0.00
2013-2-24,52.3,40.3,30.7,38.0,29.4,20.7,96,69,36,30.15,29.85,6,1,15,0.00
2013-2-25,41.4,31.1,20.1,23.8,20.3,14.6,81,65,47,30.26,30.15,7,1,13,0.00
2013-2-26,37.0,30.8,23.9,35.7,27.8,18.9,95,88,80,30.25,29.68,6,2,13,0.37
2013-2-27,49.7,41.9,35.9,43.4,35.0,32.7,96,78,55,29.74,29.62,7,2,16,0.01
2013-2-28,41.6,37.5,32.7,34.2,27.5,25.0,79,67,56,29.80,29.67,5,1,16,0.00